Regional Weather Roundup
Issued by NWS

Home | Current Version | Previous Version | Graphics & Text | Print | Product List | Glossary On
Versions: 1 2 3 4 5 6 7 8 9 10 11 12 13 14 15 16 17 18 19 20 21 22 23 24 25 26 27 28 29 30 31 32 33 34 35 36 37 38 39 40 41 42 43 44 45 46 47 48 49 50
000
ASUS43 KOAX 240502
RWRNE

WEATHER ROUNDUP FOR NEBRASKA
NATIONAL WEATHER SERVICE OMAHA NE
1200 AM CDT TUE MAY 24 2016

NOTES: SATELLITE DATA IS BEING USED TO AUGMENT CLOUD COVER ABOVE
       12000 FEET.
       "FAIR" INDICATES FEW OR NO CLOUDS BELOW 12,000 FEET WITH NO
       SIGNIFICANT WEATHER AND/OR OBSTRUCTIONS TO VISIBILITY.

  * THESE STATIONS DO NOT REPORT WEATHER SUCH AS RAIN...SNOW OR FOG.

NEZ001>004-019>022-054>056-240600-
NEBRASKA PANHANDLE

CITY           SKY/WX    TMP DP  RH WIND       PRES   REMARKS
SCOTTSBLUFF    CLEAR     45  42  89 NE5       29.90R
ALLIANCE       CLEAR     40  39  97 W6        29.88R
CHADRON        CLOUDY    55  41  59 W3        29.85S
SIDNEY         CLOUDY    41  38  89 SW5       29.92S
$$

NEZ057>060-069>072-079>082-240600-
SOUTHWEST NEBRASKA

CITY           SKY/WX    TMP DP  RH WIND       PRES   REMARKS
NORTH PLATTE   CLEAR     51  45  79 CALM      29.85S
IMPERIAL       CLEAR     52  45  77 N7        29.88F
LEXINGTON      CLEAR     58  53  84 CALM      29.82F
MCCOOK         CLEAR     58  49  72 NW6       29.83R
$$

NEZ005>010-023>029-035>040-094-240600-
NORTH CENTRAL NEBRASKA

CITY           SKY/WX    TMP DP  RH WIND       PRES   REMARKS
VALENTINE      PTCLDY    61  41  47 W8        29.81R
AINSWORTH      PTCLDY    61  43  51 W8        29.82F
BROKEN BOW     CLEAR     57  45  64 E7        29.85R
ORD            CLEAR     59  57  93 VRB3      29.80R
$$

NEZ041-046>049-061>064-073>077-083>087-240600-
SOUTH CENTRAL NEBRASKA

CITY           SKY/WX    TMP DP  RH WIND       PRES   REMARKS
GRAND ISLAND   CLEAR     60  58  92 S6        29.82R
HASTINGS       CLEAR     63  62  97 SE6       29.83R
KEARNEY *      CLEAR     61  57  88 SE5       29.83S
YORK           CLOUDY    59  57  94 CALM      29.83F
$$

NEZ011>018-030>034-042>045-240600-
NORTHEAST NEBRASKA

CITY           SKY/WX    TMP DP  RH WIND       PRES   REMARKS
NORFOLK        CLOUDY    63  60  90 S3        29.80S
ALBION         CLEAR     61  58  90 S5        29.82S
FREMONT        TSTM      65  63  96 SE16      29.83F
TEKAMAH        LGT RAIN  65  62  90 SE13      29.82F
$$

NEZ050>053-065>068-078-088>093-240600-
SOUTHEAST NEBRASKA

CITY           SKY/WX    TMP DP  RH WIND       PRES   REMARKS
LINCOLN        TSTM      61  58  90 S13       29.84F FOG
OMAHA EPPLEY   TSTM      68  63  84 S13       29.83S
FALLS CITY     CLOUDY    67  62  84 SE9       29.86S
$$

NEZ044-045-051>053-067-240600-
OMAHA AREA

CITY           SKY/WX    TMP DP  RH WIND       PRES   REMARKS
OMAHA EPPLEY   TSTM      68  63  84 S13       29.83S
FREMONT        TSTM      65  63  96 SE16      29.83F
OFFUTT AFB     MOCLDY    68  64  85 SE10      29.83R
$$



USA.gov is the U.S. government's official web portal to all federal, state and local government web resources and services.